Change the Weather History Date:

Saturday, March 1, 2014

  Actual Average Record
Temperature  
Mean Temperature 42 °F -  
Max Temperature 49 °F 53 °F 77 °F (2012)
Min Temperature 35 °F 40 °F 18 °F (1978)
Degree Days  
Heating Degree Days 24    
Moisture  
Dew Point 35 °F    
Average Humidity 77    
Maximum Humidity 96    
Minimum Humidity 63    
Precipitation  
Precipitation 0.00 in - - ()
Sea Level Pressure  
Sea Level Pressure 30.27 in    
Wind  
Wind Speed 12 mph (NNE)    
Max Wind Speed 20 mph    
Max Gust Speed 25 mph    
Visibility 10 miles    
Events      
Averages and records for this station are not official NWS values.
T = Trace of Precipitation, MM = Missing Value Source: NWS Daily Summary

Daily Weather History Graph

Daily Weather History Graph

Search for Another Location

Airport or City:

Trip Planner

Search our weather history database for the weather conditions in past years. The results will help you decide how hot, cold, wet, or windy it might be!

Date:

Astronomy

Mar. 01, 2014 Rise Set
Actual Time 6:32 AM EST 5:57 PM EST
Civil Twilight 6:07 AM EST 6:23 PM EST
Nautical Twilight 5:37 AM EST 6:53 PM EST
Astronomical Twilight 5:07 AM EST 7:22 PM EST
Moon 6:26 AM EST (3/1) 6:39 PM EST (3/1)
Length of Visible Light 12h 16m
Length of Day
11h 24m
New Moon, 0% of the Moon is Illuminated
Mar 1
New Moon
Mar 8
First Quarter
Mar 16
Full
Mar 23
Last Quarter
Mar 30
New

Hourly Weather History & Observations

Time (EST) Temp. Windchill Dew Point Humidity Pressure Visibility Wind Dir Wind Speed Gust Speed Precip Events Conditions
12:15 AM 36.9 °F 28.2 °F 31.8 °F 82% 30.29 in 10.0 mi NE 13.8 mph 21.9 mph N/A   Clear
12:35 AM 37.0 °F 27.4 °F 31.8 °F 81% 30.28 in 10.0 mi NE 17.3 mph 21.9 mph N/A   Clear
12:55 AM 37.4 °F 28.9 °F 31.8 °F 80% 30.28 in 10.0 mi NE 13.8 mph 20.7 mph N/A   Clear
1:15 AM 37.4 °F 28.2 °F 31.8 °F 80% 30.28 in 10.0 mi NE 16.1 mph 20.7 mph N/A   Clear
1:35 AM 37.4 °F 28.9 °F 32.0 °F 81% 30.29 in 10.0 mi NNE 13.8 mph 20.7 mph N/A   Clear
1:55 AM 38.1 °F 29.5 °F 32.0 °F 79% 30.29 in 10.0 mi NE 15.0 mph - N/A   Scattered Clouds
2:15 AM 38.7 °F 29.5 °F 32.0 °F 77% 30.28 in 10.0 mi NE 17.3 mph - N/A   Overcast
2:35 AM 38.7 °F 28.8 °F 31.8 °F 76% 30.27 in 10.0 mi NNE 19.6 mph 25.3 mph N/A   Overcast
2:55 AM 39.2 °F 30.2 °F 31.6 °F 74% 30.27 in 10.0 mi NNE 17.3 mph 23.0 mph N/A   Overcast
3:15 AM 39.2 °F 30.5 °F 31.8 °F 75% 30.26 in 10.0 mi NE 16.1 mph - N/A   Overcast
3:35 AM 39.4 °F 30.7 °F 32.2 °F 75% 30.27 in 10.0 mi NNE 16.1 mph 21.9 mph N/A   Overcast
3:55 AM 39.6 °F 31.3 °F 32.2 °F 75% 30.28 in 10.0 mi NE 15.0 mph - N/A   Overcast
4:20 AM 39.7 °F 31.2 °F 33.1 °F 77% 30.27 in 10.0 mi NE 16.1 mph 20.7 mph N/A   Overcast
4:35 AM 40.1 °F 31.6 °F 33.1 °F 76% 30.27 in 10.0 mi NE 16.1 mph 23.0 mph N/A   Overcast
4:55 AM 40.1 °F 32.0 °F 32.9 °F 75% 30.27 in 10.0 mi NE 15.0 mph - N/A   Overcast
5:15 AM 40.3 °F 32.2 °F 33.1 °F 75% 30.28 in 10.0 mi NE 15.0 mph 20.7 mph N/A   Overcast
5:35 AM 40.6 °F 33.4 °F 34.0 °F 77% 30.27 in 10.0 mi NE 12.7 mph - N/A   Overcast
5:55 AM 40.5 °F 32.5 °F 34.7 °F 80% 30.27 in 10.0 mi ENE 15.0 mph 20.7 mph N/A   Mostly Cloudy
6:15 AM 40.3 °F 33.9 °F 35.1 °F 82% 30.28 in 10.0 mi NE 10.4 mph 17.3 mph N/A   Clear
6:35 AM 39.9 °F 33.4 °F 34.7 °F 82% 30.29 in 10.0 mi NNE 10.4 mph - N/A   Scattered Clouds
6:55 AM 40.6 °F 33.8 °F 35.2 °F 81% 30.29 in 10.0 mi NE 11.5 mph - N/A   Mostly Cloudy
7:15 AM 41.2 °F 35.0 °F 35.6 °F 81% 30.29 in 10.0 mi NE 10.4 mph - N/A   Overcast
7:35 AM 41.9 °F 35.9 °F 36.0 °F 79% 30.29 in 10.0 mi NE 10.4 mph - N/A   Overcast
7:55 AM 42.4 °F 35.7 °F 36.0 °F 78% 30.29 in 10.0 mi NE 12.7 mph 16.1 mph N/A   Overcast
8:15 AM 43.2 °F 35.9 °F 36.3 °F 77% 30.30 in 10.0 mi NE 15.0 mph 19.6 mph N/A   Overcast
8:35 AM 43.3 °F 36.5 °F 36.3 °F 76% 30.31 in 10.0 mi NNE 13.8 mph 17.3 mph N/A   Overcast
9:00 AM 44.2 °F 38.4 °F 36.5 °F 74% 30.31 in 10.0 mi NNE 11.5 mph - N/A   Overcast
9:15 AM 44.6 °F 38.8 °F 36.3 °F 73% 30.31 in 10.0 mi NNE 11.5 mph 18.4 mph N/A   Overcast
9:35 AM 46.0 °F 40.2 °F 36.7 °F 70% 30.32 in 10.0 mi NNE 12.7 mph - N/A   Overcast
9:55 AM 46.6 °F - 37.0 °F 69% 30.31 in 10.0 mi NNE 12.7 mph - N/A   Overcast
10:15 AM 46.0 °F 41.0 °F 36.9 °F 70% 30.33 in 10.0 mi NNE 10.4 mph - N/A   Overcast
10:35 AM 46.4 °F 41.5 °F 36.9 °F 69% 30.32 in 10.0 mi NNE 10.4 mph - N/A   Overcast
10:55 AM 47.8 °F - 37.2 °F 67% 30.31 in 10.0 mi North 11.5 mph - N/A   Scattered Clouds
11:15 AM 48.2 °F - 37.2 °F 66% 30.31 in 10.0 mi North 12.7 mph - N/A   Scattered Clouds
11:35 AM 48.2 °F - 37.0 °F 65% 30.30 in 10.0 mi NNE 12.7 mph - N/A   Clear
11:55 AM 48.2 °F - 37.0 °F 65% 30.29 in 10.0 mi NNE 10.4 mph - N/A   Clear
12:15 PM 47.7 °F - 36.9 °F 66% 30.29 in 10.0 mi NNE 10.4 mph - N/A   Clear
12:35 PM 48.9 °F - 37.0 °F 64% 30.28 in 10.0 mi NNE 11.5 mph - N/A   Clear
12:55 PM 46.6 °F - 36.9 °F 69% 30.27 in 10.0 mi North 9.2 mph - N/A   Scattered Clouds
1:15 PM 46.9 °F - 37.0 °F 68% 30.27 in 10.0 mi North 11.5 mph - N/A   Clear
1:35 PM 47.1 °F - 36.9 °F 68% 30.26 in 10.0 mi North 11.5 mph - N/A   Clear
1:55 PM 46.9 °F - 36.5 °F 67% 30.26 in 10.0 mi NNE 11.5 mph - N/A   Clear
2:15 PM 46.9 °F - 36.9 °F 68% 30.26 in 10.0 mi North 10.4 mph - N/A   Clear
2:35 PM 47.1 °F - 36.9 °F 68% 30.26 in 10.0 mi North 11.5 mph - N/A   Clear
2:55 PM 46.6 °F - 36.7 °F 68% 30.25 in 10.0 mi North 10.4 mph - N/A   Scattered Clouds
3:15 PM 46.9 °F - 35.1 °F 63% 30.25 in 10.0 mi NNE 11.5 mph - N/A   Scattered Clouds
3:35 PM 46.8 °F - 35.4 °F 65% 30.25 in 10.0 mi NNE 10.4 mph - N/A   Scattered Clouds
3:55 PM 45.9 °F 40.8 °F 34.7 °F 65% 30.25 in 10.0 mi NNE 10.4 mph - N/A   Scattered Clouds
4:15 PM 46.4 °F 42.4 °F 35.1 °F 65% 30.24 in 10.0 mi NNE 8.1 mph - N/A   Scattered Clouds
4:35 PM 44.8 °F 41.0 °F 34.0 °F 66% 30.24 in 10.0 mi NE 6.9 mph - N/A   Scattered Clouds
4:55 PM 45.0 °F 41.2 °F 34.7 °F 67% 30.24 in 10.0 mi NNE 6.9 mph - N/A   Mostly Cloudy
5:15 PM 43.7 °F 38.6 °F 35.1 °F 72% 30.25 in 10.0 mi NE 9.2 mph - N/A   Scattered Clouds
5:35 PM 42.8 °F 38.6 °F 35.2 °F 75% 30.26 in 10.0 mi NE 6.9 mph - N/A   Clear
5:55 PM 41.7 °F 37.3 °F 35.6 °F 79% 30.26 in 10.0 mi NE 6.9 mph - N/A   Clear
6:15 PM 41.5 °F 38.6 °F 35.6 °F 79% 30.26 in 10.0 mi NE 4.6 mph - N/A   Mostly Cloudy
6:35 PM 41.9 °F 39.0 °F 35.6 °F 78% 30.26 in 10.0 mi NE 4.6 mph - N/A   Overcast
6:55 PM 41.0 °F 38.0 °F 35.1 °F 79% 30.26 in 10.0 mi NE 4.6 mph - N/A   Mostly Cloudy
7:15 PM 40.3 °F 38.2 °F 35.6 °F 83% 30.26 in 10.0 mi ENE 3.5 mph - N/A   Scattered Clouds
7:35 PM 40.5 °F - 35.6 °F 83% 30.26 in 10.0 mi Calm Calm - N/A   Scattered Clouds
7:55 PM 41.0 °F - 36.3 °F 83% 30.26 in 10.0 mi Calm Calm - N/A   Scattered Clouds
8:15 PM 39.9 °F 37.8 °F 36.1 °F 86% 30.26 in 10.0 mi East 3.5 mph - N/A   Scattered Clouds
8:35 PM 39.6 °F - 36.5 °F 89% 30.26 in 10.0 mi Calm Calm - N/A   Clear
8:55 PM 39.4 °F - 36.5 °F 89% 30.26 in 10.0 mi Calm Calm - N/A   Mostly Cloudy
9:15 PM 41.0 °F - 37.4 °F 87% 30.25 in 10.0 mi Calm Calm - N/A   Mostly Cloudy
9:35 PM 38.8 °F - 35.8 °F 89% 30.26 in 10.0 mi Calm Calm - N/A   Clear
9:55 PM 37.4 °F - 35.2 °F 92% 30.26 in 10.0 mi Calm Calm - N/A   Clear
10:15 PM 35.8 °F 33.0 °F 34.2 °F 94% 30.26 in 10.0 mi North 3.5 mph - N/A   Clear
10:35 PM 36.7 °F - 34.9 °F 93% 30.25 in 10.0 mi Calm Calm - N/A   Clear
10:55 PM 36.7 °F - 34.9 °F 93% 30.24 in 10.0 mi Calm Calm - N/A   Clear
11:15 PM 36.5 °F - 34.7 °F 93% 30.24 in 10.0 mi Calm Calm - N/A   Clear
11:35 PM 35.4 °F - 34.0 °F 94% 30.23 in 10.0 mi Calm Calm - N/A   Clear
11:55 PM 36.0 °F - 34.9 °F 96% 30.23 in 10.0 mi Calm Calm - N/A   Clear